This is the latest recevied weather packets stored in our database for station/object N4MGC. If no packets are shown the sender has not sent any weather packets the latest 10 day(s).
| Time | Temp. | Humidity | Pressure | Rain* | Wind** | Luminosity | Snow |
|---|---|---|---|---|---|---|---|
| 1777939279 | 22.22° C | 56% | 1012.2 hPa | 0 mm | - | 18 W/m² | - |
| 1777938975 | 22.78° C | 57% | 1012.3 hPa | 0 mm | - | 20 W/m² | - |
| 1777938672 | 22.78° C | 55% | 1012.4 hPa | 0 mm | - | 22 W/m² | - |
| 1777938369 | 22.78° C | 53% | 1012.2 hPa | 0 mm | - | 25 W/m² | - |
| 1777938066 | 23.33° C | 51% | 1012.4 hPa | 0 mm | - | 26 W/m² | - |
| 1777937762 | 23.89° C | 50% | 1012.3 hPa | 0 mm | - | 29 W/m² | - |
| 1777937458 | 23.89° C | 46% | 1012.1 hPa | 0 mm | - | 31 W/m² | - |
| 1777937156 | 23.89° C | 47% | 1012.2 hPa | 0 mm | - | 32 W/m² | - |
| 1777936853 | 23.89° C | 48% | 1012.3 hPa | 0 mm | - | 34 W/m² | - |
| 1777936549 | 23.89° C | 48% | 1012.3 hPa | 0 mm | - | 36 W/m² | - |
| 1777936245 | 24.44° C | 47% | 1012.3 hPa | 0 mm | - | 42 W/m² | - |
| 1777935942 | 24.44° C | 46% | 1012.4 hPa | 0 mm | - | 39 W/m² | - |
| 1777935641 | 24.44° C | 47% | 1012.5 hPa | 0 mm | - | 41 W/m² | - |
| 1777935338 | 24.44° C | 45% | 1012.6 hPa | 0 mm | - | 42 W/m² | - |
| 1777935035 | 25° C | 45% | 1012.5 hPa | 0 mm | - | 44 W/m² | - |
| 1777934731 | 25° C | 47% | 1012.6 hPa | 0 mm | - | 45 W/m² | - |
| 1777934429 | 25° C | 44% | 1012.6 hPa | 0 mm | - | 46 W/m² | - |
| 1777934125 | 25° C | 44% | 1012.9 hPa | 0 mm | - | 62 W/m² | - |
| 1777933821 | 25.56° C | 43% | 1012.7 hPa | 0 mm | - | 62 W/m² | - |
| 1777933518 | 25.56° C | 44% | 1012.9 hPa | 0 mm | - | 249 W/m² | - |
| 1777933216 | 26.11° C | 41% | 1012.9 hPa | 0 mm | - | 294 W/m² | - |
| 1777932913 | 26.11° C | 41% | 1012.8 hPa | 0 mm | - | 305 W/m² | - |
| 1777932610 | 26.11° C | 43% | 1013 hPa | 0 mm | - | 304 W/m² | - |
| 1777932306 | 25.56° C | 42% | 1013.1 hPa | 0 mm | - | 334 W/m² | - |
| 1777932003 | 25.56° C | 42% | 1013 hPa | 0 mm | - | 351 W/m² | - |
* Rain latest hour (hover to see other rain measurements)
** Current wind speed in m/s (hover to see current wind gust speed)